FW2545 Weather Reports


time (UTC)temp
C
wind
direction
speed
KPH
gust
KPH
rain 1hr
cm
rain 24hr
cm
rain mn
cm
humidity
%
barometer
mb
20260506013031 21 345 3.2 11.3 0.00 0.00 0.00 54 1014.0
20260506011530 22 336 8.0 17.7 0.00 0.00 0.00 52 1013.8
20260506010030 22 324 9.7 20.9 0.00 0.00 0.00 50 1013.8
20260506003029 23 324 9.7 19.3 0.00 0.00 0.00 48 1013.8
20260506001603 24 326 9.7 20.9 0.00 0.00 0.00 48 1013.8
20260505234530 24 318 9.7 17.7 0.00 0.00 0.00 47 1014.0
20260505233032 25 325 9.7 19.3 0.00 0.00 0.00 46 1014.0
20260505231531 25 310 9.7 20.9 0.00 0.00 0.00 46 1014.1
20260505230030 25 317 8.0 19.3 0.00 0.00 0.00 45 1014.2
20260505224532 26 319 8.0 19.3 0.00 0.00 0.00 45 1014.3
20260505223030 26 323 8.0 17.7 0.00 0.00 0.00 45 1014.3
20260505221531 26 328 8.0 17.7 0.00 0.00 0.00 44 1014.5
20260505220107 26 326 8.0 17.7 0.00 0.00 0.00 44 1014.6
20260505214532 26 321 6.4 20.9 0.00 0.00 0.00 43 1014.7
20260505213033 27 311 4.8 16.1 0.00 0.00 0.00 43 1014.8
20260505210030 26 322 4.8 17.7 0.00 0.00 0.00 45 1015.2
20260505204607 25 318 4.8 16.1 0.00 0.00 0.00 46 1015.3
20260505203033 25 314 6.4 14.5 0.00 0.00 0.00 47 1015.4
20260505201529 25 319 6.4 14.5 0.00 0.00 0.00 48 1015.4
20260505200032 24 334 6.4 14.5 0.00 0.00 0.00 48 1015.6
20260505194526 24 322 6.4 14.5 0.00 0.00 0.00 49 1015.7
20260505193030 24 324 6.4 16.1 0.00 0.00 0.00 50 1015.7
20260505191531 23 342 6.4 16.1 0.00 0.00 0.00 52 1015.8
20260505190027 23 349 6.4 17.7 0.00 0.00 0.00 53 1015.9
20260505184526 22 332 6.4 16.1 0.00 0.00 0.00 57 1016.0
20260505181530 19 341 8.0 17.7 0.00 0.00 0.00 63 1016.0
20260505180146 18 342 4.8 14.5 0.00 0.00 0.00 65 1016.0
20260505174530 18 332 3.2 14.5 0.00 0.00 0.00 66 1016.0
20260505173030 18 318 3.2 11.3 0.00 0.00 0.00 69 1016.0
20260505171531 17 326 3.2 9.7 0.00 0.00 0.00 71 1016.0
20260505170029 17 323 3.2 11.3 0.00 0.00 0.00 72 1016.0
20260505164603 16 304 4.8 12.9 0.00 0.00 0.00 74 1015.9
20260505163030 16 54 3.2 11.3 0.00 0.00 0.00 76 1016.0
20260505161531 16 17 4.8 12.9 0.00 0.00 0.00 79 1016.0
20260505153030 12 64 3.2 8.0 0.00 0.00 0.00 91 1015.7
20260505151528 11 70 0.0 6.4 0.00 0.00 0.00 92 1015.7
20260505124530 7 178 0.0 3.2 0.00 0.00 0.00 91 1013.9
20260505123031 7 235 1.6 6.4 0.00 0.00 0.00 90 1013.8
20260505121530 7 202 0.0 4.8 0.00 0.00 0.00 90 1013.7
20260505114528 7 202 0.0 3.2 0.00 0.00 0.00 90 1013.7
20260505113027 8 187 1.6 6.4 0.00 0.00 0.00 89 1013.5
20260505101529 8 203 3.2 8.0 0.00 0.00 0.00 89 1013.1
20260505100033 8 232 1.6 6.4 0.00 0.00 0.00 88 1013.0
20260505094532 9 222 0.0 4.8 0.00 0.00 0.00 88 1013.0
20260505093032 9 202 0.0 0.0 0.00 0.00 0.00 87 1012.9
20260505091644 9 207 0.0 3.2 0.00 0.00 0.00 85 1012.9
20260505090030 10 205 0.0 4.8 0.00 0.00 0.00 85 1012.7
20260505084645 10 202 0.0 4.8 0.00 0.00 0.00 84 1012.8
20260505083029 10 244 0.0 4.8 0.00 0.00 0.00 84 1012.9
20260505081606 10 271 3.2 8.0 0.00 0.00 0.00 84 1012.8
20260505080107 10 292 1.6 6.4 0.00 0.00 0.00 82 1012.8
20260505074530 10 251 1.6 6.4 0.00 0.00 0.00 81 1012.7
20260505071531 11 251 0.0 4.8 0.00 0.00 0.00 79 1012.5
20260505070037 11 270 0.0 4.8 0.00 0.00 0.00 77 1012.4
20260505064527 11 255 1.6 6.4 0.00 0.00 0.00 75 1012.4
20260505063029 12 247 0.0 1.6 0.00 0.00 0.00 73 1012.4
20260505061604 13 247 0.0 4.8 0.00 0.00 0.00 70 1012.3
20260505060107 13 170 0.0 4.8 0.00 0.00 0.00 68 1012.3
20260505054532 14 202 1.6 6.4 0.00 0.00 0.00 66 1012.2
20260505053031 15 192 3.2 6.4 0.00 0.00 0.00 65 1012.2
20260505051533 15 237 1.6 9.7 0.00 0.00 0.00 62 1012.0
20260505041530 18 248 4.8 8.0 0.00 0.00 0.00 55 1011.5
20260505040043 18 233 4.8 11.3 0.00 0.00 0.00 55 1011.4
20260505034528 18 244 1.6 9.7 0.00 0.00 0.00 53 1011.1
20260505033031 20 213 3.2 8.0 0.00 0.00 0.00 50 1010.9
20260505031530 20 264 6.4 17.7 0.00 0.00 0.00 47 1010.7
20260505030033 21 263 6.4 16.1 0.00 0.00 0.00 46 1010.4
20260505024605 22 269 8.0 25.7 0.00 0.00 0.00 43 1010.3
20260505023031 22 265 12.9 22.5 0.00 0.00 0.00 42 1010.2
20260505020030 24 266 14.5 30.6 0.00 0.00 0.00 38 1010.1